User: anonymous   Login
Location: Ay?beleni
(36.6500°N, 30.3000°E)
Time: 07:49:28
(UTC+00:00)
Language:

Okean-O - Orbit

View from above orbital plane
View from above orbital plane
View from above satellite
View from above satellite

Ground track
Ground track

The orbit data is extracted from the following two-line orbital elements,

1 25860U 99039A   22023.80641528  .00000170  00000-0  31740-4 0  9991
2 25860  98.1595  62.2772 0001635 109.0634 251.0752 14.76815046211901
Epoch (UTC): 23 January 2022 19:21:14
Eccentricity: 0.0001635
inclination: 98.1595°
perigee height: 638 km
apogee height: 640 km
right ascension of ascending node: 62.2772°
argument of perigee: 109.0634°
revolutions per day: 14.76815046
mean anomaly at epoch: 251.0752°
orbit number at epoch: 21190

The dashed part of the orbit path shows where the satellite is in the earth's shadow,  

DLR